Total_Precipitation_Accumulation
0.11 0.12 0.15 0.19 0.19 0.12 0.06 0.03 0.03 0.05 0.04 0.05 0.05 0.07 0.07 0.09 0.12 0.19 0.17 0.14 0.17 0.24 0.35 0.59 0.82 0.99 1.01 0.99 0.89 0.76 0.65 0.65 0.68 0.80 0.89 0.93 0.87 0.80 0.73 0.71 0.72 0.80 0.87 0.88 0.86 0.83 0.69 0.51 0.42
0.13 0.18 0.26 0.30 0.19 0.09 0.03 0.02 0.02 0.04 0.04 0.05 0.06 0.08 0.11 0.11 0.12 0.17 0.21 0.22 0.22 0.30 0.43 0.62 0.90 1.11 1.15 1.03 0.96 0.87 0.76 0.68 0.70 0.72 0.81 0.91 0.94 0.95 0.87 0.86 0.85 0.83 0.80 0.80 0.79 0.67 0.59 0.48 0.35
0.22 0.31 0.44 0.35 0.17 0.07 0.03 0.01 0.02 0.03 0.06 0.07 0.09 0.11 0.17 0.19 0.18 0.21 0.24 0.30 0.32 0.39 0.54 0.78 1.07 1.26 1.29 1.19 1.10 1.00 0.86 0.77 0.76 0.76 0.77 0.85 0.93 0.98 1.04 1.06 0.98 0.85 0.69 0.68 0.71 0.60 0.53 0.50 0.40
0.37 0.54 0.56 0.35 0.13 0.06 0.04 0.03 0.03 0.07 0.10 0.12 0.15 0.21 0.25 0.24 0.26 0.26 0.27 0.42 0.51 0.56 0.76 0.96 1.17 1.34 1.35 1.29 1.22 1.17 1.03 0.90 0.93 0.91 0.84 0.87 0.89 0.97 1.06 1.07 0.95 0.84 0.72 0.66 0.61 0.58 0.54 0.50 0.43
0.58 0.70 0.57 0.33 0.12 0.05 0.05 0.04 0.04 0.08 0.12 0.15 0.20 0.30 0.37 0.36 0.38 0.42 0.43 0.61 0.75 0.78 0.96 1.12 1.30 1.43 1.40 1.36 1.34 1.30 1.25 1.17 1.11 1.06 0.98 0.98 0.96 0.98 1.01 0.99 0.83 0.78 0.76 0.72 0.68 0.62 0.59 0.56 0.45
0.85 0.82 0.58 0.34 0.14 0.07 0.05 0.04 0.06 0.10 0.13 0.18 0.26 0.41 0.49 0.56 0.64 0.71 0.76 0.85 1.01 1.08 1.23 1.33 1.51 1.61 1.55 1.45 1.39 1.39 1.46 1.43 1.36 1.29 1.20 1.11 1.11 1.08 0.98 0.91 0.77 0.74 0.78 0.80 0.76 0.69 0.61 0.57 0.49
0.90 0.82 0.52 0.29 0.16 0.09 0.08 0.05 0.06 0.11 0.15 0.18 0.25 0.49 0.60 0.80 0.98 1.09 1.19 1.26 1.32 1.47 1.60 1.74 1.75 1.68 1.69 1.64 1.56 1.50 1.52 1.54 1.55 1.44 1.38 1.26 1.21 1.14 1.00 0.88 0.85 0.80 0.78 0.77 0.74 0.74 0.65 0.56 0.49
0.98 0.99 0.56 0.30 0.21 0.14 0.09 0.08 0.08 0.09 0.14 0.18 0.26 0.50 0.68 0.88 1.24 1.56 1.74 1.87 1.90 1.96 2.03 2.14 2.14 1.97 1.85 1.75 1.69 1.63 1.57 1.62 1.67 1.54 1.29 1.13 1.10 1.11 1.01 0.81 0.84 0.87 0.80 0.75 0.70 0.71 0.69 0.56 0.47
1.19 1.27 0.64 0.29 0.22 0.17 0.12 0.11 0.14 0.12 0.17 0.24 0.30 0.40 0.69 1.04 1.49 1.95 2.26 2.46 2.52 2.41 2.40 2.37 2.41 2.34 2.20 2.04 1.81 1.79 1.73 1.72 1.65 1.51 1.30 1.18 1.16 1.06 0.95 0.70 0.66 0.76 0.77 0.72 0.67 0.66 0.69 0.54 0.42
1.31 1.20 0.58 0.29 0.27 0.25 0.21 0.18 0.19 0.22 0.28 0.32 0.41 0.54 0.83 1.29 1.79 2.13 2.37 2.47 2.58 2.55 2.60 2.56 2.56 2.56 2.47 2.28 2.14 2.02 1.85 1.79 1.66 1.42 1.29 1.28 1.20 1.11 0.93 0.77 0.66 0.72 0.73 0.76 0.74 0.68 0.65 0.56 0.42
0.97 0.74 0.47 0.41 0.38 0.36 0.38 0.34 0.31 0.33 0.35 0.35 0.44 0.61 1.00 1.47 1.97 2.29 2.48 2.52 2.64 2.80 2.94 2.91 2.84 2.90 2.92 2.69 2.41 2.28 2.05 1.85 1.82 1.57 1.41 1.32 1.35 1.33 1.23 1.02 0.85 0.84 0.74 0.72 0.73 0.67 0.54 0.48 0.43
0.68 0.48 0.48 0.53 0.50 0.52 0.55 0.49 0.45 0.40 0.34 0.34 0.49 0.68 1.01 1.55 1.95 2.20 2.39 2.52 2.71 2.98 3.17 3.38 3.29 3.20 3.21 3.01 2.71 2.46 2.26 2.01 1.89 1.83 1.64 1.50 1.40 1.31 1.26 1.11 0.94 0.86 0.74 0.68 0.73 0.67 0.53 0.49 0.43
0.56 0.47 0.52 0.62 0.62 0.61 0.61 0.58 0.48 0.43 0.40 0.49 0.74 0.97 1.16 1.51 1.92 2.30 2.44 2.51 2.74 2.84 3.15 3.51 3.48 3.35 3.24 3.08 2.83 2.52 2.39 2.21 2.02 2.04 1.97 1.74 1.56 1.40 1.32 1.27 1.12 1.01 0.85 0.70 0.69 0.73 0.66 0.64 0.59
0.44 0.48 0.59 0.71 0.72 0.69 0.76 0.71 0.63 0.57 0.61 0.77 1.00 1.18 1.33 1.50 1.87 2.28 2.51 2.62 2.69 2.83 3.02 3.36 3.48 3.34 3.28 3.13 2.85 2.52 2.30 2.21 2.15 1.99 1.90 1.88 1.71 1.56 1.47 1.35 1.19 1.09 0.96 0.80 0.70 0.71 0.75 0.74 0.72
0.47 0.64 0.75 0.83 0.83 0.81 0.91 0.95 0.70 0.65 0.76 0.86 1.00 1.26 1.49 1.62 1.86 2.12 2.31 2.48 2.63 2.86 3.07 3.19 3.40 3.47 3.28 3.20 2.91 2.59 2.47 2.28 2.15 2.03 1.85 1.83 1.79 1.68 1.63 1.49 1.28 1.16 1.14 1.02 0.91 0.87 0.88 0.81 0.71
0.66 0.78 0.86 0.75 0.84 0.93 1.08 1.08 0.71 0.69 0.76 0.84 0.95 1.15 1.40 1.59 1.79 2.03 2.21 2.41 2.64 2.89 3.12 3.18 3.23 3.37 3.34 3.25 3.11 2.70 2.46 2.42 2.24 2.14 1.99 1.86 1.85 1.84 1.81 1.67 1.45 1.44 1.50 1.35 1.16 1.04 0.95 0.86 0.78
0.82 0.75 0.67 0.63 0.70 0.92 1.04 1.04 0.78 0.67 0.74 0.76 0.87 1.01 1.17 1.34 1.57 1.91 2.20 2.48 2.65 2.79 3.07 3.25 3.24 3.27 3.46 3.44 3.36 3.18 2.78 2.46 2.42 2.38 2.14 1.89 1.83 1.86 1.83 1.75 1.65 1.66 1.67 1.58 1.40 1.27 1.17 1.01 0.92
0.61 0.53 0.50 0.56 0.58 0.79 0.87 0.83 0.80 0.72 0.75 0.71 0.72 0.87 1.03 1.19 1.34 1.64 2.01 2.43 2.66 2.78 3.03 3.25 3.26 3.24 3.52 3.75 3.66 3.47 3.20 2.67 2.37 2.33 2.22 2.04 1.89 1.83 1.81 1.72 1.75 1.80 1.75 1.67 1.61 1.45 1.34 1.24 1.18
0.47 0.46 0.43 0.45 0.49 0.70 0.75 0.69 0.78 0.75 0.69 0.68 0.69 0.75 0.84 1.01 1.23 1.44 1.75 2.15 2.41 2.69 2.90 3.10 3.19 3.17 3.26 3.48 3.49 3.29 3.05 2.80 2.42 2.23 2.22 2.18 2.10 2.07 1.98 1.79 1.79 1.86 1.72 1.61 1.66 1.70 1.65 1.55 1.44
0.49 0.49 0.46 0.45 0.51 0.69 0.74 0.68 0.67 0.67 0.64 0.65 0.69 0.68 0.74 0.80 0.99 1.16 1.43 1.75 2.06 2.34 2.72 2.94 3.12 3.27 3.13 3.02 3.16 3.22 3.16 3.00 2.74 2.49 2.42 2.25 2.15 2.10 2.08 2.05 1.95 1.99 1.97 1.86 1.76 1.77 1.81 1.74 1.70
0.47 0.44 0.41 0.49 0.59 0.67 0.74 0.76 0.62 0.57 0.54 0.56 0.60 0.59 0.63 0.74 0.85 0.99 1.18 1.41 1.71 2.01 2.36 2.65 2.86 3.11 3.22 3.16 3.29 3.35 3.29 3.11 2.86 2.57 2.39 2.28 2.20 2.15 2.08 2.10 2.13 2.12 2.11 2.00 1.89 1.82 1.81 1.83 1.77
0.44 0.29 0.36 0.48 0.73 0.76 0.73 0.91 0.57 0.52 0.54 0.55 0.60 0.61 0.60 0.67 0.76 0.90 1.05 1.22 1.44 1.76 2.02 2.27 2.60 2.87 3.09 3.23 3.17 3.09 3.04 2.81 2.57 2.52 2.57 2.48 2.30 2.18 2.16 2.11 2.10 2.15 2.12 2.02 2.01 2.00 1.87 1.88 1.88
0.39 0.28 0.38 0.53 0.73 0.82 0.59 0.77 0.63 0.50 0.62 0.65 0.67 0.66 0.63 0.65 0.74 0.82 0.95 1.11 1.29 1.56 1.81 1.97 2.24 2.56 2.73 2.75 2.78 2.83 2.81 2.75 2.67 2.65 2.62 2.57 2.36 2.18 2.11 2.10 2.07 2.05 2.07 2.05 2.05 2.07 2.05 1.96 1.89
0.40 0.48 0.55 0.64 0.99 1.17 0.67 0.78 0.75 0.72 0.79 0.69 0.62 0.61 0.67 0.73 0.79 0.86 0.94 1.06 1.15 1.31 1.55 1.77 1.86 2.08 2.31 2.38 2.44 2.54 2.47 2.50 2.54 2.52 2.55 2.58 2.41 2.16 2.05 2.03 1.99 1.98 1.97 1.97 2.02 2.08 2.13 2.08 1.94
0.54 0.94 1.30 1.31 1.30 0.92 0.54 0.73 0.89 0.79 0.81 0.81 0.74 0.70 0.76 0.83 0.93 1.00 1.00 1.11 1.16 1.24 1.31 1.52 1.66 1.73 1.92 2.12 2.22 2.23 2.29 2.31 2.34 2.30 2.33 2.49 2.51 2.23 2.01 1.97 1.98 1.98 1.93 1.96 2.08 2.14 2.13 2.13 2.06
0.53 0.75 1.06 1.03 0.81 0.56 0.47 0.74 0.87 0.79 0.76 0.75 0.74 0.76 0.78 0.92 1.07 1.12 1.12 1.26 1.32 1.34 1.35 1.42 1.50 1.48 1.57 1.78 1.97 2.02 2.12 2.12 2.07 2.01 1.99 2.06 2.22 2.28 2.20 2.11 2.06 2.06 2.06 2.01 2.02 2.02 2.00 2.04 2.02
0.62 0.60 0.53 0.95 0.80 0.64 0.57 0.60 0.64 0.61 0.65 0.73 0.76 0.76 0.82 0.97 1.12 1.22 1.25 1.29 1.28 1.27 1.36 1.43 1.49 1.44 1.38 1.44 1.57 1.71 1.83 1.86 1.80 1.77 1.73 1.75 1.84 1.99 2.15 2.17 2.11 2.02 2.00 1.99 1.97 1.93 1.85 1.86 1.89
0.52 0.51 0.70 1.33 1.26 0.86 0.56 0.55 0.77 0.73 0.76 0.76 0.75 0.77 0.87 0.91 1.00 1.12 1.14 1.14 1.19 1.22 1.28 1.40 1.47 1.50 1.42 1.38 1.41 1.50 1.55 1.57 1.55 1.55 1.54 1.51 1.54 1.60 1.76 1.92 1.98 1.96 1.91 1.88 1.88 1.86 1.77 1.76 1.68
0.52 0.60 0.76 1.01 0.99 1.01 0.70 0.79 0.92 0.82 0.77 0.74 0.72 0.75 0.81 0.84 0.86 0.90 0.92 0.97 1.03 1.08 1.20 1.35 1.45 1.47 1.37 1.40 1.42 1.38 1.41 1.49 1.47 1.39 1.38 1.42 1.40 1.39 1.48 1.59 1.69 1.73 1.77 1.76 1.76 1.71 1.68 1.67 1.61
0.42 0.49 0.67 1.16 0.97 0.77 0.75 0.82 0.75 0.68 0.65 0.65 0.67 0.70 0.72 0.78 0.80 0.78 0.78 0.76 0.76 0.83 0.94 1.06 1.18 1.22 1.23 1.28 1.37 1.30 1.29 1.42 1.46 1.36 1.28 1.30 1.30 1.20 1.22 1.30 1.38 1.43 1.44 1.47 1.50 1.51 1.51 1.51 1.51